Location: Barbis
(51.6137°N, 10.4232°E)
Time: 02:34:24
(UTC+00:00)

Daily predictions for brighter satellites

Satellite Brightness Start Highest point End
(mag) Time Altitude Azimuth Time Altitude Azimuth Time Altitude Azimuth
CENTAUR R/B 4.2 02:14:21 38° ESE 02:14:21 38° ESE 02:19:22 10° SE
Cosmos 2297 Rocket 4.5 02:48:41 16° NNE 02:48:41 16° NNE 02:49:47 10° NNE
Lacrosse 5 4.3 02:52:48 16° ESE 02:52:48 16° ESE 02:55:25 10° E
Cosmos 2263 Rocket 3.5 03:01:26 37° E 03:01:26 37° E 03:05:55 10° NE
SJ 16-02 3.8 03:08:47 20° E 03:08:47 20° E 03:11:49 10° NE
CZ-4C R/B 4.4 03:25:55 10° SSE 03:29:36 21° ESE 03:33:45 10° ENE
COSMO-SKYMED 1 4.3 03:26:53 10° SE 03:30:41 30° ENE 03:30:47 30° ENE
BREEZE-M DEB (TANK) 4.4 03:30:34 70° SSW 03:30:47 71° SSW 03:35:10 10° ESE
ATLAS 3B R/B 2.9 03:30:35 60° N 03:31:32 67° NE 03:38:39 10° ESE
Lacrosse 4 Rocket 3.8 03:38:11 17° SSE 03:38:11 17° SSE 03:39:11 10° SSE
ALOS 2.6 03:48:17 10° NNE 03:52:57 62° ESE 03:53:16 60° ESE
Cosmos 923 Rocket 4.1 03:53:37 73° SSE 03:53:37 73° SSE 03:58:23 10° SSE
Cosmos 2227 Rocket 3.9 03:57:13 20° N 03:57:13 20° N 03:59:40 10° NNE
Cosmos 2344 4.2 03:53:01 35° NW 03:57:47 84° NE 04:10:19 10° SE
CENTAUR R/B 3.5 04:01:35 43° SW 04:01:35 43° SW 04:09:20 10° S
Cosmos 2227 4.0 04:01:36 81° W 04:01:46 82° WNW 04:07:26 10° NNE
USA 305 3.7 04:02:46 48° NE 04:02:46 48° NE 04:06:07 10° ENE
NOSS 3-4 (A) 3.6 04:00:50 41° SSW 04:02:59 70° SE 04:09:21 10° NE
NOSS 3-4 (C) 3.6 04:00:54 40° SSW 04:03:06 69° SE 04:09:29 10° NE
ARGOS Delta rocket 3.8 03:58:48 10° NNE 04:04:02 88° ESE 04:04:43 67° S
Meteor 1-31 Rocket 3.6 04:01:51 10° NNE 04:05:09 48° ENE 04:05:09 48° ENE
Cosmos 158 Rocket 4.0 04:10:38 58° SSW 04:10:38 58° SSW 04:14:44 10° SSE
USA 306 3.4 04:10:52 55° NE 04:10:52 55° NE 04:14:34 10° E
Cosmos 1515 Rocket 4.0 04:09:36 35° N 04:11:18 61° ENE 04:15:44 10° SSE
SL-4 R/B 2.4 04:15:03 57° E 04:15:03 57° E 04:18:05 10° E
Cosmos 1782 3.2 04:16:34 59° SSE 04:16:34 59° SSE 04:19:53 10° SSE
PSLV R/B 4.4 04:13:56 10° SSE 04:18:01 60° ENE 04:19:24 38° N
SKYMED 2 3.5 04:14:15 10° SSE 04:18:35 81° ENE 04:19:24 58° N
Cosmos 1844 Rocket 4.2 04:14:00 10° S 04:19:06 37° ESE 04:24:15 10° NE
Cosmos 1680 Rocket 3.4 04:20:02 58° NW 04:21:02 75° WSW 04:26:20 10° SSE
SJ-12 4.5 04:17:59 10° NNE 04:22:00 56° E 04:25:59 10° S
ATLAS 2AS CENTAUR R/B 3.1 04:15:31 13° SSW 04:22:45 77° SE 04:30:34 10° NE
FALCON 9 DEB 3.9 04:26:37 51° ENE 04:26:37 51° ENE 04:29:24 10° E
Cosmos 2297 Rocket 4.0 04:30:30 17° NNW 04:30:30 17° NNW 04:33:19 10° NNE
ATLAS 5 CENTAUR R/B 2.5 04:31:19 40° N 04:31:19 40° N 04:33:10 10° NE
ATLAS CENTAUR R/B 1.1 04:32:06 74° S 04:32:06 74° S 04:35:45 10° SE
ADEOS 3.4 04:27:31 10° NNE 04:32:45 74° WNW 04:37:57 10° SSW
RESURS DK-1 3.5 04:29:09 10° S 04:33:07 44° ESE 04:37:06 10° NE
CRYOSAT 2 4.2 04:28:57 10° S 04:33:48 76° W 04:38:43 10° N
Cosmos 1328 Rocket 4.3 04:35:40 37° SW 04:35:40 37° SW 04:38:39 10° S
Lacrosse 5 2.1 04:32:03 30° SW 04:34:28 65° SE 04:39:30 10° ENE
Meteor PRIRODA 4.4 04:31:17 10° NNE 04:34:58 52° E 04:38:37 10° S
Meteor 2-6 Rocket 4.3 04:30:36 10° N 04:36:01 74° ENE 04:41:27 10° SSE
ERBS 3.3 04:38:12 36° NNE 04:38:12 36° NNE 04:40:36 10° NE
CZ-2C R/B 4.4 04:33:44 10° N 04:34:18 13° N 04:34:18 13° N
Cosmos 1500 Rocket 4.5 04:33:34 10° SSE 04:37:43 48° E 04:41:54 10° NNE
H-2A R/B 4.3 04:35:07 10° NNE 04:38:48 38° E 04:42:27 10° SSE
Cosmos 1437 Rocket 4.1 04:36:35 11° N 04:40:01 36° ENE 04:43:32 10° SE
Cosmos 2112 Rocket 4.0 04:38:53 38° NW 04:40:46 61° WSW 04:46:02 10° S
Gbstr 26 Del rocket 3.7 04:43:34 32° SSW 04:43:34 32° SSW 04:46:51 10° SSE
Cosmos 2263 Rocket 2.5 04:43:11 39° W 04:44:33 46° NW 04:50:04 10° NNE
SJ 16-02 1.4 04:45:52 46° WSW 04:46:44 55° WNW 04:51:08 10° NNE
Nadezhda 3 Rocket 4.3 04:42:03 10° N 04:48:23 71° ENE 04:54:37 10° SSE
Cosmos 1898 Rocket 3.6 04:48:58 10° SSW 04:54:17 82° ESE 04:59:40 10° NNE
CZ-2C R/B 3.9 04:51:29 10° SE 04:56:33 41° ENE 05:01:32 10° N
FENGYUN 3A 3.9 04:52:24 10° N 04:57:32 44° WNW 05:02:36 10° SW
FALCON 9 DEB 3.8 04:56:35 30° SSW 04:57:45 45° SSE 05:00:52 10° ENE
Cosmos 1766 Rocket 4.1 04:58:04 36° WNW 04:58:04 36° WNW 05:01:57 10° N
FALCON 9 DEB 3.7 04:56:45 31° SSW 04:57:52 47° SSE 05:01:00 10° ENE
Envisat 4.2 04:53:04 10° NNE 04:57:59 45° E 05:02:50 10° S
H-2A R/B 4.0 04:57:53 10° NNE 05:01:27 34° E 05:04:58 10° SSE
Cosmos 1743 Rocket 3.6 04:57:10 10° S 05:01:37 85° E 05:06:08 10° NNE
Cosmos 2181 Rocket 4.4 04:57:11 10° NNW 05:02:52 39° W 05:08:28 10° SSW
Cosmos 2082 Rocket 3.8 04:58:11 10° NNW 05:03:09 30° NE 05:08:08 10° ESE
Cosmos 1408 Rocket 3.6 04:59:19 10° SSW 05:03:41 53° WNW 05:08:04 10° N
COSMO-SKYMED 1 3.1 05:02:46 10° SSW 05:06:46 36° W 05:07:59 30° WNW
USA 307 3.0 05:05:08 34° WNW 05:06:55 68° N 05:11:13 10° E
Cosmos 1937 Rocket 3.5 05:06:12 10° SSW 05:11:21 83° ESE 05:16:36 10° NNE
Lacrosse 4 Rocket 3.7 05:14:32 11° SW 05:14:32 11° SW 05:14:52 10° SW
USA 308 3.0 05:11:14 30° WNW 05:13:16 70° NNE 05:17:34 10° E
Cosmos 1833 Rocket 3.5 05:08:16 10° NNW 05:13:44 48° NE 05:19:10 10° SE
Meteor 2-3 Rocket 4.2 05:10:38 10° SW 05:16:00 39° WNW 05:21:26 10° N
CZ-4B R/B 3.2 05:11:52 10° N 05:16:18 56° WNW 05:20:38 10° SSW
MOS 1 Rocket 3.4 05:12:15 10° S 05:17:06 70° W 05:22:17 10° NNW
CZ-4C R/B 2.1 05:12:01 10° SW 05:17:10 85° NW 05:23:28 10° NE
Meteor 1-27 Rocket 3.9 05:11:45 10° NNW 05:17:33 81° ENE 05:23:25 10° SSE
Cosmos 2154 Rocket 4.0 05:11:19 10° S 05:17:33 87° E 05:23:53 10° N
Meteor 1-10 Rocket 4.2 05:14:02 10° NNW 05:19:33 65° W 05:25:05 10° S
Cosmos 1689 Rocket 4.1 05:17:25 10° SSW 05:18:12 15° SW 05:18:12 15° SW
FALCON 9 DEB 3.3 05:18:33 20° SW 05:20:33 62° SSE 05:23:45 10° ENE
Cosmos 1805 Rocket 3.9 05:16:24 10° S 05:20:49 69° E 05:25:16 10° NNE
ATLAS 3B R/B 3.3 05:17:52 20° WNW 05:22:00 39° WSW 05:28:31 10° S
COSMOS 2406 3.6 05:18:09 10° NNW 05:23:53 66° NE 05:29:38 10° SE
Aureole 2 Rocket 2.1 05:22:37 10° SSW 05:25:07 63° ESE 05:27:41 10° NNE
Cosmos 1048 Rocket 4.3 05:20:55 10° NNW 05:26:13 69° ENE 05:31:25 10° SE
YAOGAN 6 2.6 05:23:36 10° NNE 05:27:08 78° ESE 05:30:37 10° S
Cosmos 1862 3.3 05:24:23 10° SSW 05:28:24 60° WNW 05:32:26 10° N
Genesis I 3.0 05:26:00 10° SW 05:29:49 77° NW 05:33:42 10° NE
deb Chang Zheng 4 4.4 05:26:11 10° N 05:29:57 29° WNW 05:33:43 10° WSW
ALOS 3.4 05:26:25 10° N 05:29:59 22° WNW 05:31:45 18° W
Cosmos 2341 Rocket 4.5 05:27:26 10° S 05:33:33 66° E 05:39:44 10° NNE
Cosmos 2278 Rocket 4.4 05:29:48 10° SSE 05:34:37 30° ESE 05:39:27 10° NE
Cosmos 858 Rocket 4.4 05:30:30 10° SW 05:35:42 68° WNW 05:40:58 10° NNE
PSLV R/B 3.6 05:32:03 10° N 05:35:56 70° WNW 05:39:43 10° SSW
Cosmos 2327 Rocket 4.4 05:30:56 10° SSW 05:37:00 69° WNW 05:43:07 10° N
Cosmos 990 Rocket 4.3 05:32:06 10° SW 05:37:08 45° WNW 05:42:13 10° NNE
ASTRO F (AKARI) 4.4 05:34:56 10° N 05:37:55 46° WNW 05:40:56 10° SW
Cosmos 2074 Rocket 4.2 05:32:35 10° SSW 05:38:33 48° WNW 05:44:33 10° N
Meteor 1-31 Rocket 4.1 05:36:59 10° NNW 05:39:42 19° WNW 05:40:30 18° WNW
Cosmos 2227 Rocket 4.2 05:39:16 10° NNW 05:41:11 12° NNW 05:43:06 10° N
USA 305 2.9 05:38:55 18° WNW 05:42:05 84° NNE 05:46:25 10° ESE
BREEZE M DEB (TANK) 4.0 05:37:27 10° SW 05:42:53 31° SSE 05:45:20 10° E
Cosmos 405 Rocket 2.9 05:40:42 10° SSW 05:44:15 45° WNW 05:47:55 10° N
SL-24 DEB 4.3 05:39:38 10° S 05:44:21 62° W 05:49:08 10° N
Cosmos 1812 3.6 05:42:51 11° NNW 05:45:56 28° W 05:49:15 10° SSW
Cosmos 2228 Rocket 3.8 05:44:28 10° NNW 05:48:25 32° W 05:52:20 10° SSW
Cosmos 1295 Rocket 4.4 05:43:54 10° SSW 05:49:58 69° WNW 05:56:04 10° N
USA 306 2.9 05:47:01 15° WNW 05:50:32 88° NNE 05:54:50 10° ESE
SL-4 R/B 1.8 05:50:37 14° W 05:53:55 79° SSW 05:57:31 10° ESE
NOSS 3-4 (A) 4.0 05:48:33 10° W 05:54:18 42° NNW 06:00:35 10° NE
Cosmos 1633 Rocket 3.7 05:50:01 10° S 05:54:23 62° E 05:58:45 10° NNE
NOSS 3-4 (C) 3.9 05:48:40 10° W 05:54:25 42° NNW 06:00:43 10° NE
Cosmos 2184 Rocket 4.5 05:50:20 10° SW 05:56:13 39° WNW 06:02:10 10° N
USA 234 4.0 05:50:18 10° ENE 05:56:44 57° SE 06:03:09 10° SW
USA-17 4.3 05:53:24 10° WSW 05:56:47 57° NW 05:59:49 10° NE
Cosmos 1356 3.3 05:56:26 10° SSW 05:59:52 88° WNW 06:03:18 10° NNE
FALCON 9 DEB 2.9 05:57:09 10° WSW 06:00:22 84° NNW 06:03:36 10° ENE
NOSS 3-1 (C) 4.4 05:55:04 10° NW 06:02:02 59° NE 06:10:16 10° ESE
Cosmos 1844 Rocket 2.9 05:57:25 10° SW 06:02:53 49° NW 06:08:25 10° NNE
FALCON 9 DEB 3.2 05:59:52 12° WNW 06:03:01 75° SSW 06:06:29 10° ESE
Cosmos 1707 Rocket 3.7 06:01:21 10° NNW 06:05:35 51° W 06:09:46 10° S
MOS 1-B 4.4 06:01:15 10° NNE 06:07:03 68° WNW 06:12:48 10° SSW
ATLAS CENTAUR R/B 3.3 06:09:05 10° W 06:10:07 11° WSW 06:11:10 10° SW
NOAA 6 4.1 06:05:13 10° N 06:10:13 54° WNW 06:15:11 10° SW
COSMOS 2455 2.9 06:04:57 10° SW 06:11:00 85° NW 06:17:05 10° NE
RESURS DK-1 3.3 06:07:39 10° WSW 06:11:18 29° NW 06:14:59 10° NNE
H-2A R/B 3.8 06:09:37 10° N 06:12:49 24° WNW 06:15:58 10° WSW
ERBS 3.3 06:11:07 10° WNW 06:14:07 31° N 06:17:08 10° ENE
ATLAS 2AS CENTAUR R/B 3.4 06:06:44 10° W 06:14:22 47° NNW 06:21:45 10° NE
USA 290 3.2 06:11:36 10° NNW 06:14:50 47° ENE 06:18:00 10° SE
CZ-4B DEB 4.4 06:10:03 10° N 06:15:20 51° WNW 06:20:36 10° SW
Cosmos 1437 Rocket 4.0 06:13:09 10° NW 06:16:03 21° W 06:18:56 10° SW
Cosmos 2297 Rocket 4.3 06:15:19 10° N 06:16:18 10° N 06:17:17 10° N
Cosmos 1844 3.9 06:11:27 10° SW 06:16:48 47° NW 06:22:14 10° NNE
Okean 1-7 4.3 06:13:16 10° N 06:17:24 41° ENE 06:21:27 10° SE
Lacrosse 5 2.1 06:12:38 10° W 06:17:37 54° NNW 06:22:36 10° ENE
Meteor 1-25 Rocket 4.4 06:12:57 10° S 06:18:29 78° E 06:24:04 10° NNE
Okean O Rocket 1.6 06:14:37 10° N 06:19:03 67° WNW 06:23:28 10° SSW
Cosmos 372 Rocket 4.0 06:15:08 10° SW 06:20:08 55° WNW 06:25:11 10° NNE
Cosmos 1242 Rocket 2.5 06:17:40 10° NNW 06:21:19 70° WSW 06:24:57 10° S
PAYLOAD B 4.3 06:16:23 10° N 06:21:46 55° WNW 06:27:07 10° SW
Geosat 4.3 06:17:37 10° SSE 06:22:33 55° WSW 06:27:30 10° NW
SMAP 3.2 06:18:09 10° N 06:22:44 57° WNW 06:27:17 10° SSW
USA 81 4.2 06:20:48 10° SSW 06:25:57 54° W 06:31:09 10° N
